www.pogodaiklimat.ru
Время
(UTC), дата
22:53 29.12
23:53 29.12
00:53 29.12
01:53 29.12
02:53 29.12
03:53 29.12
04:53 29.12
05:53 30.12
06:53 30.12
07:53 30.12
08:53 30.12
09:53 30.12
10:53 30.12
11:53 30.12
12:53 30.12
13:53 30.12
14:53 30.12
15:53 30.12
16:53 30.12
17:53 30.12
18:53 30.12
19:53 30.12
20:53 30.12
21:53 30.12
22:53 30.12
23:53 30.12
00:53 30.12
01:53 30.12
02:53 30.12
03:53 30.12
04:53 30.12
05:53 31.12
06:53 31.12
07:53 31.12
08:53 31.12
09:53 31.12
10:53 31.12
11:53 31.12
12:53 31.12
13:53 31.12
14:53 31.12
15:53 31.12
16:53 31.12
17:53 31.12
18:53 31.12
19:53 31.12
20:53 31.12
21:53 31.12
Ветер
(напр.,м/с)
Видим. Явления Облачность Т
(С)
Тd
(С)
f
(%)
Тe
(С)
Тes
(С)
Комфортность P
(гПа)
Po
(гПа)
Тmin
(С)
Tmax
(С)
R
(мм)
R24
(мм)
S
(см)
СЗ 4 16 км 5/0 7500 м
[верхняя]
+15.6 +2.2 40 +15 +15 1013.4 1011.1 +15.6 +18.9
С 4 16 км 5/0 7500 м
[верхняя]
+14.4 +3.3 47 +13 +13 1014.4 1012.1
СЗ 4 16 км 2/0 7500 м
[верхняя]
+13.9 +3.3 49 +12 +12 1015.5 1013.1
С 4 16 км 2/0 7500 м
[верхняя]
+13.3 +2.8 49 +12 +12 1016.1 1013.8
С 4 16 км ясно +12.2 +2.2 50 +10 +10 1017.4 1015.1
С 4 16 км ясно +11.1 +1.7 52 +9 +9 1018.2 1016.1
С 4 16 км ясно +10.6 +2.2 56 +8 +8 1018.2 1016.1 +10.0 +16.1
СЗ 3 16 км ясно +9.4 +1.1 56 +7 +7 1018.9 1016.8
С 1 16 км ясно +10.0 +1.1 54 +9 +9 1019.2 1016.8
0 16 км ясно +6.7 +1.7 70 +6 +6 1019.3 1017.2
0 16 км ясно +6.7 +1.7 70 +6 +6 1019.1 1016.8
0 16 км ясно +6.7 +2.2 73 +6 +6 1019.4 1017.2
З 2 16 км ясно +6.1 +1.1 70 +3 +3 1019.7 1017.5 +5.6 +10.6 5.6
СЗ 3 16 км ясно +7.2 +0.6 63 +5 +5 1020.7 1018.5
СЗ 3 16 км ясно +6.7 +1.1 67 +4 +4 1021.6 1019.2
С 2 16 км ясно +10.6 0.0 48 +9 +10 1022.6 1020.2
С 4 16 км ясно +13.3 -2.8 33 +12 +13 1023.4 1021.2
С 4 16 км ясно +14.4 -3.9 28 +13 +17 1023.4 1021.2
З 3 16 км ясно +15.6 -3.9 26 +15 +20 1022.5 1020.2 +6.1 +15.6
СЗ 6 16 км ясно +16.1 -3.9 25 +15 +18 1021.4 1019.2
СЗ 5
{9}
16 км ясно +16.7 -3.9 24 +16 +19 1020.7 1018.5
СЗ 5
{9}
16 км ясно +17.2 -2.8 25 +16 +19 1020.2 1017.8
СЗ 4 16 км ясно +16.7 -2.8 26 +16 +19 1020.4 1018.2
СЗ 6 16 км 2/0 2100 м
[средняя]
+15.6 -3.3 27 +14 +15 1020.8 1018.5
С 4 16 км 2/0 2100 м
[средняя]
+13.3 -2.8 33 +12 +12 1021.2 1018.8 +12.8 +17.2
С 3 16 км ясно +11.7 -2.2 38 +10 +10 1021.6 1019.5
СЗ 3 16 км ясно +11.7 -2.2 38 +10 +10 1022.1 1019.9
СЗ 3 16 км ясно +10.0 -1.7 44 +8 +8 1022.4 1020.2
СЗ 3 16 км ясно +10.0 -2.2 42 +8 +8 1023.1 1020.9
СЗ 2 16 км ясно +10.0 -2.2 42 +9 +9 1023.4 1021.2
СЗ 2 16 км ясно +8.9 -1.7 47 +7 +7 1023.5 1021.2 +8.3 +13.9
С 2 16 км ясно +8.3 -1.7 49 +6 +6 1023.4 1021.2
0 16 км ясно +7.8 -2.2 49 +8 +8 1023.5 1021.2
СЗ 2 16 км ясно +7.2 -1.1 56 +5 +5 1023.9 1021.6
С 2 16 км ясно +6.1 -1.1 60 +4 +4 1024.1 1021.9
С 1 16 км ясно +5.6 -1.1 62 +4 +4 1024.2 1021.9
С 2 16 км ясно +6.7 -1.1 57 +4 +4 1024.2 1021.9 +4.4 +8.9
СЗ 1 16 км ясно +5.6 -1.1 62 +4 +4 1025.0 1022.6
СЗ 1 16 км 2/0 2400 м
[средняя]
+5.6 -1.1 62 +4 +4 1025.5 1023.2
С 2 16 км ясно +9.4 0.0 52 +8 +8 1026.3 1023.9
С 3 16 км ясно +12.2 -0.6 41 +11 +12 1026.5 1024.3
СВ 4 16 км 2/0 7500 м
[верхняя]
+13.9 -3.3 30 +12 +15 1026.0 1023.9
СВ 3 16 км 5/0 7500 м
[верхняя]
+15.0 -4.4 26 +14 +19 1025.3 1023.2 +4.4 +15.0
нст 1 16 км 5/0 2400 м
[средняя верхняя]
+15.6 -5.6 23 +16 +23 1024.2 1021.9
С 3 16 км 10/0 2250 м
[средняя]
+15.0 -5.6 24 +15 +17 1023.2 1020.9
С 3 16 км 10/0 2250 м
[средняя]
+15.6 -5.0 24 +15 +17 1022.6 1020.2
С 3 16 км 10/0 2100 м
[средняя]
+15.6 -5.0 24 +15 +16 1022.1 1019.9
СЗ 2 16 км 8/0 2250 м
[средняя верхняя]
+14.4 -5.0 26 +14 +15 1022.0 1019.9
Местоположение метеостанции Houston Hobby Airport: широта 29.6375 долгота -95.2825 высота над уровнем моря 14 м.
В архиве по умолчанию представлена погода в Хьюстоне за последние 1-2 суток. Обновление информации о фактической погоде в базе происходит ежечасно! Архивные данные за месяц целиком и за предыдущие месяцы Вы можете получить, выбрав интересующий диапазон дат из раскрывающегося списка и нажав кнопку "Ввод!".
Внимание! Архив погоды МЕТАР в базе сайта по станциям, не включенным в климатический монитор, хранится не более 60 дней. Нет смысла пытаться выбрать более раннюю дату.
*Определитесь, кто Вы:
Внимание! Время в таблицах - всемирное. Для получения местного времени необходимо прибавить поправку, которая равна ч.
Смотрите также архив погоды в соседних городах и на ближайших метеорологических станциях:
Партнеры нашего сайта:      
Пояснения к столбцам:
  • Ветер - указаны скорость ветра в м/с - средняя за 10 мин, порывы в срок и между сроками (в фигурных скобках) и направление, откуда дует ветер: С - северный,
  • СВ - северо-восточный, В - восточный, ЮВ - юго-восточный, Ю - южный, ЮЗ - юго-западный, З - западный, СЗ - северо-западный.
  • Видимость - горизонтальная дальность видимости в метрах или километрах. При видимости от 1 до 10 км при отсутствии осадков обычно наблюдается дымка, при ухудшении видимости до 1 км и менее - туман. В сухую погоду видимость может ухудшаться дымом, пылью или мглою.
  • Явления - указаны атмосферные явления, наблюдавшиеся в срок или в последний час перед сроком; фигурными скобками обозначены явления, наблюдавшиеся между сроками (за 1-3 часа до срока); квадратными скобками обозначены град или гололедные отложения с указанием их диаметра в мм.
  • Облачность - указаны через наклонную черту общая и нижняя облачность в баллах и высота нижней границы облаков в метрах; квадратными скобками обозначены формы облаков: Ci - перистые, Cs - перисто-слоистые, Cc - перисто-кучевые, Ac - высококучевые, As - высокослоистые, Sc - слоисто-кучевые, Ns - слоисто-дождевые, Cu - кучевые, Cb - кучево-дождевые. Подробнее классификацию облаков см. в Атласе облаков (PDF).
  • T - Температура воздуха - температура, измеренная на высоте 2 м над землей.
  • Td - Температура точки росы - температура, при понижении до которой содержащийся в воздухе водяной пар достигнет насыщения.
  • f - Относительная влажность воздуха - влажноcть воздуха, измеренная на высоте 2 м над землей.
  • Te - Эффективная температура - температура, которую ощущает одетый по сезону человек в тени. Характеристика душности погоды. При расчете учитывается влияние влажности воздуха и скорости ветра на теплоощущения человека.
  • Tes - Эффективная температура на солнце - температура, которую ощущает человек, с поправкой на солнечный нагрев. Характеристика знойности погоды. Зависит от высоты солнца над горизонтом, облачности и скорости ветра. Ночью, в пасмурную погоду, а также при ветре 12 м/с и более поправка равна нулю.
  • P - Атмосферное давление - приведенное к уровню моря атмосферное давление.
  • Po - Атмосферное давление - измеренное на уровне метеостанции атмосферное давление.
  • Tmin - Минимальная температура - минимум температуры воздуха на высоте 2 м над землей.
  • Tmax - Максимальная температура - максимум температуры воздуха на высоте 2 м над землей.
  • R - Количество осадков - Количество выпавших осадков за период времени, мм. При наведении курсора мыши на число - период времени, за который выпало указанное количество осадков.
  • R24 - Количество осадков - Количество выпавших осадков за 24 часа, мм.
  • S - Снежный покров - Высота снежного покрова, см. При наведении курсора мыши на число - состояние снежного покрова и степень покрытия местности в баллах.